Satellite: NOAA-15
Catalog number: 25338
Epoch time: 08339.52229575
Element set: 722
Inclination: 098.5695 deg
RA of node: 327.1778 deg
Eccentricity: 0.0009682
Arg of perigee: 265.4570 deg
Mean anomaly: 094.5525 deg
Mean motion: 14.24734977 rev/day
Decay rate: -1.4e-07 rev/day^2
Epoch rev: 54905
Checksum: 347
Satellite: NOAA-14
Catalog number: 23455
Epoch time: 08339.54546483
Element set: 415
Inclination: 098.9315 deg
RA of node: 051.7402 deg
Eccentricity: 0.0009641
Arg of perigee: 027.4778 deg
Mean anomaly: 332.6931 deg
Mean motion: 14.13754162 rev/day
Decay rate: 2.42e-06 rev/day^2
Epoch rev: 71842
Checksum: 306
Satellite: OKEAN-4
Catalog number: 23317
Epoch time: 08339.80433002
Element set: 764
Inclination: 082.5381 deg
RA of node: 155.8769 deg
Eccentricity: 0.0020785
Arg of perigee: 287.2223 deg
Mean anomaly: 072.6713 deg
Mean motion: 14.82655944 rev/day
Decay rate: 1.38e-06 rev/day^2
Epoch rev: 76356
Checksum: 319
Satellite: MET-2/21
Catalog number: 22782
Epoch time: 08338.93104466
Element set: 317
Inclination: 082.5474 deg
RA of node: 336.9102 deg
Eccentricity: 0.0022492
Arg of perigee: 170.3493 deg
Mean anomaly: 189.8118 deg
Mean motion: 13.83631757 rev/day
Decay rate: 8.5e-07 rev/day^2
Epoch rev: 77060
Checksum: 316
Satellite: MET-3/5
Catalog number: 21655
Epoch time: 08338.22478007
Element set: 523
Inclination: 082.5523 deg
RA of node: 344.9527 deg
Eccentricity: 0.0013053
Arg of perigee: 316.5554 deg
Mean anomaly: 043.4538 deg
Mean motion: 13.17017155 rev/day
Decay rate: 5.1e-07 rev/day^2
Epoch rev: 83183
Checksum: 287
Satellite: NOAA-12
Catalog number: 21263
Epoch time: 08339.61898972
Element set: 930
Inclination: 098.7717 deg
RA of node: 341.6032 deg
Eccentricity: 0.0012628
Arg of perigee: 355.3166 deg
Mean anomaly: 004.7893 deg
Mean motion: 14.25557014 rev/day
Decay rate: 2.3e-07 rev/day^2
Epoch rev: 91267
Checksum: 314
Satellite: NOAA-11
Catalog number: 19531
Epoch time: 08339.31289928
Element set: 421
Inclination: 098.7930 deg
RA of node: 066.2278 deg
Eccentricity: 0.0011150
Arg of perigee: 307.0841 deg
Mean anomaly: 052.9353 deg
Mean motion: 14.14882518 rev/day
Decay rate: -3.6e-07 rev/day^2
Epoch rev: 4196
Checksum: 301
Satellite: NOAA-10
Catalog number: 16969
Epoch time: 08339.49468964
Element set: 396
Inclination: 098.7098 deg
RA of node: 001.0236 deg
Eccentricity: 0.0012917
Arg of perigee: 047.7469 deg
Mean anomaly: 312.4789 deg
Mean motion: 14.27375073 rev/day
Decay rate: 7.7e-07 rev/day^2
Epoch rev: 15573
Checksum: 352
/EX
SB KEPS @ AMSAT $ORB08339.M
Orbital Elements 08339.MISC
HR AMSAT ORBITAL ELEMENTS FOR MANNED AND MISCELLANEOUS SATELLITES
FROM WA5QGD FORT WORTH,TX December 4, 2008
Send Subscribe/unsubscribe to KEPS at
http://www.amsat.org/mailman/listinfo/keps
BID: ORB08339.M
TO ALL RADIO AMATEURS BT
Satellite: RS-30
Catalog number: 32953
Epoch time: 08338.92161709
Element set: 174
Inclination: 082.5037 deg
RA of node: 018.0388 deg
Eccentricity: 0.0017977
Arg of perigee: 242.4805 deg
Mean anomaly: 117.4455 deg
Mean motion: 12.42998522 rev/day
Decay rate: 1.0e-07 rev/day^2
Epoch rev: 2413
Checksum: 296
Satellite: CO-66
Catalog number: 32791
Epoch time: 08339.27764948
Element set: 211
Inclination: 097.9725 deg
RA of node: 038.5173 deg
Eccentricity: 0.0015276
Arg of perigee: 306.7333 deg
Mean anomaly: 053.2472 deg
Mean motion: 14.81354509 rev/day
Decay rate: 3.52e-06 rev/day^2
Epoch rev: 3255
Checksum: 318
Satellite: DO-64
Catalog number: 32789
Epoch time: 08338.85035763
Element set: 228
Inclination: 097.9735 deg
RA of node: 038.1561 deg
Eccentricity: 0.0014812
Arg of perigee: 309.0133 deg
Mean anomaly: 050.9734 deg
Mean motion: 14.81547866 rev/day
Decay rate: 1.22e-06 rev/day^2
Epoch rev: 3252
Checksum: 314
Satellite: AAUSAT2
Catalog number: 32788
Epoch time: 08339.84759109
Element set: 218
Inclination: 097.9696 deg
RA of node: 039.0876 deg
Eccentricity: 0.0014628
Arg of perigee: 308.6253 deg
Mean anomaly: 051.3578 deg
Mean motion: 14.81622111 rev/day
Decay rate: -8.8e-07 rev/day^2
Epoch rev: 3267
Checksum: 335
Satellite: COMPASS
Catalog number: 32787
Epoch time: 08339.72894612
Element set: 218
Inclination: 097.9691 deg
RA of node: 038.9396 deg
Eccentricity: 0.0015114
Arg of perigee: 306.9281 deg
Mean anomaly: 053.0544 deg
Mean motion: 14.81508067 rev/day
Decay rate: 1.38e-06 rev/day^2
Epoch rev: 3265
Checksum: 318
Satellite: CAPE1
Catalog number: 31130
Epoch time: 08339.81763962
Element set: 469
Inclination: 098.0203 deg
RA of node: 035.8602 deg
Eccentricity: 0.0102984
Arg of perigee: 166.4651 deg
Mean anomaly: 193.9343 deg
Mean motion: 14.52013486 rev/day
Decay rate: 4.1e-07 rev/day^2
Epoch rev: 8648
Checksum: 299
Satellite: MAST
Catalog number: 31126
Epoch time: 08339.07666883
Element set: 475
Inclination: 098.0187 deg
RA of node: 036.5301 deg
Eccentricity: 0.0094946
Arg of perigee: 164.7341 deg
Mean anomaly: 195.6778 deg
Mean motion: 14.53462671 rev/day
Decay rate: 1.31e-06 rev/day^2
Epoch rev: 8669
Checksum: 330
Satellite: FALCON
Catalog number: 30776
Epoch time: 08338.89241876
Element set: 452
Inclination: 035.4334 deg
RA of node: 204.1810 deg
Eccentricity: 0.0001510
Arg of perigee: 000.7136 deg
Mean anomaly: 359.3582 deg
Mean motion: 15.03117493 rev/day
Decay rate: 2.89e-06 rev/day^2
Epoch rev: 9569
Checksum: 289
Satellite: CO-58
Catalog number: 28895
Epoch time: 08339.11984776
Element set: 183
Inclination: 098.0804 deg
RA of node: 228.9293 deg
Eccentricity: 0.0016867
Arg of perigee: 236.9227 deg
Mean anomaly: 123.0539 deg
Mean motion: 14.59720919 rev/day
Decay rate: 7.8e-07 rev/day^2
Epoch rev: 16527
Checksum: 363
Satellite: ISS
Catalog number: 25544
Epoch time: 08339.75781152
Element set: 793
Inclination: 051.6394 deg
RA of node: 222.1524 deg
Eccentricity: 0.0006091
Arg of perigee: 063.0491 deg
Mean anomaly: 297.1655 deg
Mean motion: 15.71694468 rev/day
Decay rate: 7.434e-05 rev/day^2
Epoch rev: 57537
Checksum: 322
Satellite: PO-34
Catalog number: 25520
Epoch time: 08339.75967809
Element set: 135
Inclination: 028.4593 deg
RA of node: 116.7575 deg
Eccentricity: 0.0005060
Arg of perigee: 342.2744 deg
Mean anomaly: 017.7683 deg
Mean motion: 15.17266283 rev/day
Decay rate: 3.33e-06 rev/day^2
Epoch rev: 55909
Checksum: 324
Satellite: HUBBLE
Catalog number: 20580
Epoch time: 08339.29660488
Element set: 276
Inclination: 028.4709 deg
RA of node: 293.6871 deg
Eccentricity: 0.0003458
Arg of perigee: 033.5749 deg
Mean anomaly: 326.5059 deg
Mean motion: 15.00434781 rev/day
Decay rate: 3.45e-06 rev/day^2
Epoch rev: 82055
Checksum: 317
/EX
More information about the Keps
mailing list